Bellaire, MI

10:04 PM EDT on June 25, 2017 (GMT -0400)
Antrim County

Weather History for KACB - December, 2012

Change the Weather History Date:

Thursday, December 27, 2012

  Actual Average (KCVX) Record (KCVX)
Temperature  
Mean Temperature 18 °F -  
Max Temperature 28 °F 29 °F 50 °F (2008)
Min Temperature 9 °F 19 °F -2 °F (2004)
Degree Days  
Heating Degree Days 46    
Moisture  
Dew Point 15 °F    
Average Humidity 82    
Maximum Humidity 92    
Minimum Humidity 68    
Precipitation  
Precipitation 0.00 in - - ()
Sea Level Pressure  
Sea Level Pressure 30.13 in    
Wind  
Wind Speed 3 mph (North)    
Max Wind Speed 7 mph    
Max Gust Speed -    
Visibility 10 miles    
Events      
Averages and records for this station are not official NWS values.
T = Trace of Precipitation, MM = Missing Value Source: NWS Daily Summary

Daily Weather History Graph

Daily Weather History Graph

Search for Another Location

Airport or City:

Trip Planner

Search our weather history database for the weather conditions in past years. The results will help you decide how hot, cold, wet, or windy it might be!

Date:

Astronomy

Dec. 27, 2012 Rise Set
Actual Time 8:18 AM EST 5:06 PM EST
Civil Twilight 7:44 AM EST 5:39 PM EST
Nautical Twilight 7:07 AM EST 6:17 PM EST
Astronomical Twilight 6:31 AM EST 6:52 PM EST
Moon 4:50 PM EST (12/27) 7:27 AM EST (12/27)
Length of Visible Light 9h 55m
Length of Day
8h 47m
Full, 100% of the Moon is Illuminated
Dec 27
Full
Dec 28
Full
Jan 4
Last Quarter
Jan 11
New
Jan 18
First Quarter

Hourly Weather History & Observations

Time (EST) Temp. Windchill Dew Point Humidity Pressure Visibility Wind Dir Wind Speed Gust Speed Precip Events Conditions
12:14 AM 21.9 °F 14.5 °F 15.8 °F 77% 30.10 in 10.0 mi North 5.8 mph - N/A   Overcast
12:35 AM 21.9 °F 13.4 °F 15.8 °F 77% 30.10 in 10.0 mi North 6.9 mph - N/A   Overcast
12:54 AM 21.7 °F 14.3 °F 16.2 °F 79% 30.10 in 10.0 mi North 5.8 mph - N/A   Overcast
1:14 AM 21.7 °F 13.2 °F 16.2 °F 79% 30.09 in 10.0 mi North 6.9 mph - N/A   Overcast
1:35 AM 21.7 °F 14.3 °F 15.8 °F 78% 30.09 in 10.0 mi North 5.8 mph - N/A   Overcast
1:54 AM 21.7 °F 14.3 °F 15.8 °F 78% 30.09 in 10.0 mi North 5.8 mph - N/A   Overcast
2:15 AM 21.7 °F 15.5 °F 15.8 °F 78% 30.11 in 10.0 mi North 4.6 mph - N/A   Overcast
2:35 AM 21.9 °F 15.7 °F 16.0 °F 78% 30.11 in 10.0 mi NNE 4.6 mph - N/A   Overcast
2:54 AM 21.9 °F 15.7 °F 16.3 °F 79% 30.12 in 10.0 mi North 4.6 mph - N/A   Overcast
3:15 AM 21.7 °F 15.5 °F 16.2 °F 79% 30.12 in 10.0 mi North 4.6 mph - N/A   Overcast
3:34 AM 21.6 °F 15.3 °F 16.0 °F 79% 30.12 in 10.0 mi North 4.6 mph - N/A   Overcast
3:54 AM 21.2 °F 13.6 °F 15.6 °F 79% 30.12 in 10.0 mi North 5.8 mph - N/A   Overcast
4:15 AM 20.3 °F 13.8 °F 14.9 °F 80% 30.11 in 10.0 mi North 4.6 mph - N/A   Mostly Cloudy
4:55 AM 19.4 °F - 14.7 °F 82% 30.13 in 10.0 mi Calm Calm - N/A   Clear
5:15 AM 17.8 °F - 13.6 °F 84% 30.13 in 10.0 mi Calm Calm - N/A   Clear
5:34 AM 16.7 °F - 13.8 °F 88% 30.13 in 10.0 mi Calm Calm - N/A   Clear
5:55 AM 16.2 °F - 13.5 °F 89% 30.13 in 10.0 mi Calm Calm - N/A   Scattered Clouds
6:34 AM 14.0 °F - 11.8 °F 91% 30.13 in 10.0 mi Calm Calm - N/A   Scattered Clouds
6:55 AM 12.0 °F - 9.7 °F 90% 30.13 in 10.0 mi Calm Calm - N/A   Clear
7:14 AM 12.0 °F - 9.5 °F 90% 30.14 in 10.0 mi Calm Calm - N/A   Clear
7:35 AM 12.0 °F - 9.3 °F 89% 30.15 in 10.0 mi Calm Calm - N/A   Scattered Clouds
7:55 AM 10.8 °F - 8.2 °F 90% 30.14 in 10.0 mi Calm Calm - N/A   Scattered Clouds
8:14 AM 10.6 °F - 7.7 °F 88% 30.15 in 10.0 mi Calm Calm - N/A   Clear
8:35 AM 9.7 °F - 6.8 °F 88% 30.15 in 10.0 mi Calm Calm - N/A   Clear
8:55 AM 10.4 °F - 7.5 °F 88% 30.15 in 10.0 mi Calm Calm - N/A   Scattered Clouds
9:14 AM 10.9 °F - 7.9 °F 87% 30.15 in 10.0 mi Calm Calm - N/A   Clear
9:35 AM 11.1 °F - 8.2 °F 88% 30.16 in 10.0 mi Calm Calm - N/A   Clear
9:55 AM 12.6 °F - 9.9 °F 89% 30.16 in 10.0 mi Calm Calm - N/A   Clear
10:14 AM 15.6 °F - 12.9 °F 89% 30.16 in 10.0 mi Calm Calm - N/A   Clear
10:35 AM 16.5 °F - 13.8 °F 89% 30.17 in 10.0 mi Calm Calm - N/A   Clear
10:54 AM 18.1 °F - 14.9 °F 87% 30.17 in 10.0 mi Calm Calm - N/A   Clear
11:15 AM 20.5 °F 15.6 °F 14.0 °F 76% 30.16 in 10.0 mi NE 3.5 mph - N/A   Clear
11:35 AM 22.3 °F 16.1 °F 14.2 °F 71% 30.15 in 10.0 mi NNE 4.6 mph - N/A   Scattered Clouds
11:54 AM 23.0 °F 15.8 °F 14.7 °F 71% 30.14 in 10.0 mi NNE 5.8 mph - N/A   Scattered Clouds
12:15 PM 24.1 °F 18.2 °F 15.6 °F 70% 30.14 in 10.0 mi North 4.6 mph - N/A   Scattered Clouds
12:34 PM 24.6 °F 20.3 °F 15.6 °F 69% 30.13 in 10.0 mi North 3.5 mph - N/A   Scattered Clouds
12:55 PM 24.8 °F 19.1 °F 15.8 °F 69% 30.13 in 10.0 mi NNE 4.6 mph - N/A   Scattered Clouds
1:15 PM 25.0 °F - 15.8 °F 68% 30.13 in 10.0 mi Calm Calm - N/A   Clear
1:34 PM 25.7 °F 21.5 °F 16.7 °F 69% 30.12 in 10.0 mi NE 3.5 mph - N/A   Scattered Clouds
1:55 PM 27.5 °F 21.1 °F 18.5 °F 69% 30.12 in 10.0 mi North 5.8 mph - N/A   Scattered Clouds
2:15 PM 27.5 °F 21.1 °F 18.5 °F 69% 30.12 in 10.0 mi North 5.8 mph - N/A   Scattered Clouds
2:34 PM 27.7 °F 21.3 °F 18.7 °F 69% 30.12 in 10.0 mi North 5.8 mph - N/A   Scattered Clouds
2:55 PM 27.5 °F 22.2 °F 18.7 °F 69% 30.12 in 10.0 mi North 4.6 mph - N/A   Mostly Cloudy
3:15 PM 27.9 °F 21.5 °F 18.5 °F 68% 30.13 in 10.0 mi NW 5.8 mph - N/A   Scattered Clouds
3:34 PM 27.9 °F - 18.5 °F 68% 30.13 in 10.0 mi Calm Calm - N/A   Scattered Clouds
3:55 PM 27.9 °F 24.0 °F 18.5 °F 68% 30.13 in 10.0 mi NW 3.5 mph - N/A   Scattered Clouds
4:15 PM 28.0 °F 21.7 °F 19.0 °F 69% 30.13 in 10.0 mi NNW 5.8 mph - N/A   Mostly Cloudy
4:34 PM 27.5 °F 23.6 °F 19.0 °F 71% 30.13 in 10.0 mi North 3.5 mph - N/A   Scattered Clouds
4:55 PM 27.0 °F 23.0 °F 19.2 °F 73% 30.13 in 10.0 mi North 3.5 mph - N/A   Clear
5:15 PM 26.4 °F - 19.4 °F 75% 30.14 in 10.0 mi Calm Calm - N/A   Clear
5:35 PM 23.0 °F - 18.1 °F 82% 30.13 in 10.0 mi Calm Calm - N/A   Clear
5:55 PM 21.9 °F - 18.7 °F 87% 30.14 in 10.0 mi Calm Calm - N/A   Clear
6:15 PM 19.6 °F - 16.9 °F 89% 30.13 in 10.0 mi Calm Calm - N/A   Clear
6:35 PM 19.0 °F - 16.9 °F 91% 30.13 in 10.0 mi Calm Calm - N/A   Clear
6:55 PM 18.1 °F - 15.8 °F 91% 30.14 in 10.0 mi Calm Calm - N/A   Clear
7:14 PM 16.9 °F - 14.9 °F 92% 30.14 in 10.0 mi Calm Calm - N/A   Clear
7:35 PM 16.9 °F - 14.7 °F 91% 30.15 in 10.0 mi Calm Calm - N/A   Clear
7:55 PM 14.7 °F - 12.4 °F 90% 30.16 in 4.0 mi Calm Calm - N/A   Clear
8:14 PM 14.9 °F - 12.4 °F 90% 30.16 in 10.0 mi Calm Calm - N/A   Scattered Clouds
8:35 PM 15.6 °F - 13.1 °F 90% 30.17 in 10.0 mi Calm Calm - N/A   Overcast
8:55 PM 15.6 °F - 13.1 °F 90% 30.15 in 10.0 mi Calm Calm - N/A   Scattered Clouds
9:15 PM 16.3 °F - 14.0 °F 90% 30.14 in 10.0 mi Calm Calm - N/A   Clear
9:35 PM 16.2 °F - 13.8 °F 90% 30.14 in 10.0 mi Calm Calm - N/A   Scattered Clouds
9:55 PM 17.6 °F - 15.3 °F 91% 30.15 in 10.0 mi Calm Calm - N/A   Mostly Cloudy
10:15 PM 17.2 °F - 14.9 °F 91% 30.15 in 10.0 mi Calm Calm - N/A   Overcast
10:35 PM 17.6 °F - 15.4 °F 91% 30.15 in 10.0 mi Calm Calm - N/A   Overcast
10:54 PM 18.3 °F - 16.0 °F 91% 30.14 in 10.0 mi Calm Calm - N/A   Overcast
11:14 PM 18.9 °F - 16.5 °F 91% 30.13 in 10.0 mi Calm Calm - N/A   Overcast
11:35 PM 19.6 °F - 17.4 °F 91% 30.13 in 10.0 mi Calm Calm - N/A   Overcast
11:54 PM 20.1 °F - 18.0 °F 91% 30.12 in 10.0 mi Calm Calm - N/A   Overcast